Regional Weather Roundup
Issued by NWS Cleveland, OH

Home | Current Version | Previous Version | Text Only | Print | Product List | Glossary Off
Versions: 1 2 3 4 5 6 7 8 9 10 11 12 13 14 15 16 17 18 19 20 21 22 23 24 25 26 27 28 29 30 31 32 33 34 35 36 37 38 39 40 41 42 43 44 45 46 47 48 49 50

432
ASUS41 KCLE 040302
RWRCLE
OHIO REGIONAL WEATHER ROUNDUP
NATIONAL WEATHER SERVICE CLEVELAND, OH
1000 PM EST SAT DEC 03 2016

NOTE: "FAIR" INDICATES FEW OR NO CLOUDS BELOW 12,000 FEET WITH NO
SIGNIFICANT WEATHER AND/OR OBSTRUCTIONS TO VISIBILITY.

OHZ001>008-015>018-024>027-034-035-043-044-040400-
   NORTHWEST OHIO

CITY           SKY/WX    TMP DP  RH WIND       PRES   REMARKS
DEFIANCE       CLOUDY    36  26  67 S3        30.31S
FINDLAY        CLOUDY    35  25  66 SW6       30.30S
TOLEDO EXPRESS CLOUDY    35  28  75 SW3       30.30S
TOLEDO EXEC    CLOUDY    37  30  75 SW7       30.31F
LIMA           CLOUDY    34  27  75 NE3       30.29F
$$

OHZ009>014-019>023-028>033-038-089-040400-
   NORTHEAST OHIO

CITY           SKY/WX    TMP DP  RH WIND       PRES   REMARKS
CLE-HOPKINS    CLOUDY    38  26  62 SW7       30.32R
CLE-LAKEFRONT  CLOUDY    38  27  64 SW12      30.29R
CUY CO. ARPT   CLOUDY    37  32  81 W7        30.29R
LORAIN-ELYRIA  CLOUDY    35  27  72 W6        30.30S
ASHTABULA      CLOUDY    35  34  96 CALM      30.28R
AKRON-CANTON   CLOUDY    36  25  64 W3        30.29R
WOOSTER        CLOUDY    34  27  75 W3        30.30S
MANSFIELD      CLOUDY    34  27  75 CALM      30.28F
YOUNGSTOWN     CLOUDY    36  28  73 W7        30.27S
$$

OHZ042-051>053-060>062-070>072-077>081-040400-
  SOUTHWEST OHIO

CITY           SKY/WX    TMP DP  RH WIND       PRES   REMARKS
CINC-COVINGTON CLOUDY    36  29  75 CALM      30.29S
CINC-LUNKEN    CLOUDY    39  34  82 CALM      30.32S
HAMILTON       PTCLDY    31  27  85 CALM      30.32S
DAYTON         CLOUDY    37  27  67 CALM      30.29F
WRIGHT-PAT AFB MOCLDY    35  28  78 SE2       30.29F
DAYTON GENERAL CLOUDY    37  27  67 E3        30.28F
WILMINGTON     CLOUDY    31  27  85 E3        30.29F
$$

OHZ036-037-039>041-045>050-054>059-063>069-073>076-082>088-040400-
  CENTRAL AND SOUTHEAST OHIO

CITY           SKY/WX    TMP DP  RH WIND       PRES   REMARKS
COLUMBUS       CLOUDY    36  29  75 E3        30.30F
OSU AIRPORT    CLOUDY    36  29  75 NE3       30.30S
BOLTON FIELD   NOT AVBL
RICKENBACK AFB CLOUDY    36  31  79 CALM      30.30F
NEWARK         CLOUDY    36  28  73 CALM      30.30S
MARION         CLOUDY    36  25  64 CALM      30.30F
LANCASTER      CLOUDY    36  32  85 N5        30.30F
ZANESVILLE     CLOUDY    36  29  75 CALM      30.30F
NEW PHILLY     CLOUDY    36  27  69 CALM      30.32
$$




USA.gov is the U.S. government's official web portal to all federal, state and local government web resources and services.